| time (UTC) | temp C | wind direction | speed KPH | gust KPH | rain 1hr cm | rain 24hr cm | rain mn cm | humidity % | barometer mb |
| 20260507104524 | 20 | 241 | 0.0 | 0.0 | 0.00 | 0.00 | 0.00 | 100 | 1017.6 |
| 20260507104025 | 20 | 241 | 0.0 | 0.0 | 0.00 | 0.00 | 0.00 | 100 | 1017.5 |
| 20260507103523 | 20 | 241 | 0.0 | 0.0 | 0.00 | 0.00 | 0.00 | 100 | 1017.4 |
| 20260507103023 | 20 | 247 | 0.0 | 0.0 | 0.00 | 0.00 | 0.00 | 100 | 1017.5 |
| 20260507102523 | 20 | 248 | 0.0 | 0.0 | 0.00 | 0.00 | 0.00 | 100 | 1017.3 |
| 20260507102023 | 20 | 248 | 0.0 | 0.0 | 0.00 | 0.00 | 0.00 | 100 | 1017.2 |
| 20260507101523 | 21 | 248 | 0.0 | 0.0 | 0.00 | 0.00 | 0.00 | 100 | 1017.1 |
| 20260507101022 | 20 | 248 | 0.0 | 0.0 | 0.00 | 0.00 | 0.00 | 100 | 1017.1 |
| 20260507100522 | 20 | 248 | 0.0 | 0.0 | 0.00 | 0.00 | 0.00 | 100 | 1016.9 |
| 20260507100033 | 21 | 248 | 0.0 | 0.0 | 0.00 | 0.00 | 0.00 | 100 | 1017.0 |
| 20260507095522 | 21 | 248 | 0.0 | 0.0 | 0.00 | 0.00 | 0.00 | 100 | 1017.1 |
| 20260507095022 | 21 | 248 | 0.0 | 0.0 | 0.00 | 0.00 | 0.00 | 100 | 1017.1 |
| 20260507094524 | 21 | 248 | 0.0 | 0.0 | 0.00 | 0.00 | 0.00 | 100 | 1017.1 |
| 20260507094022 | 21 | 248 | 0.0 | 0.0 | 0.00 | 0.00 | 0.00 | 100 | 1017.0 |
| 20260507093522 | 21 | 248 | 0.0 | 0.0 | 0.00 | 0.00 | 0.00 | 100 | 1016.9 |
| 20260507093019 | 21 | 248 | 0.0 | 0.0 | 0.00 | 0.00 | 0.00 | 100 | 1016.9 |
| 20260507092524 | 21 | 248 | 0.0 | 0.0 | 0.00 | 0.00 | 0.00 | 100 | 1016.8 |
| 20260507092021 | 21 | 248 | 0.0 | 0.0 | 0.00 | 0.00 | 0.00 | 100 | 1016.8 |
| 20260507091522 | 21 | 248 | 0.0 | 0.0 | 0.00 | 0.00 | 0.00 | 100 | 1016.8 |
| 20260507091021 | 21 | 248 | 0.0 | 1.6 | 0.00 | 0.00 | 0.00 | 100 | 1016.7 |
| 20260507090519 | 21 | 248 | 0.0 | 0.0 | 0.00 | 0.00 | 0.00 | 100 | 1016.6 |
| 20260507090018 | 21 | 248 | 0.0 | 0.0 | 0.00 | 0.00 | 0.00 | 100 | 1016.5 |
| 20260507085521 | 21 | 248 | 0.0 | 0.0 | 0.00 | 0.00 | 0.00 | 100 | 1016.5 |
| 20260507085019 | 21 | 248 | 0.0 | 0.0 | 0.00 | 0.00 | 0.00 | 100 | 1016.5 |
| 20260507084519 | 21 | 248 | 0.0 | 1.6 | 0.00 | 0.00 | 0.00 | 100 | 1016.4 |
| 20260507084017 | 21 | 248 | 0.0 | 1.6 | 0.00 | 0.00 | 0.00 | 100 | 1016.4 |
| 20260507083518 | 21 | 248 | 0.0 | 1.6 | 0.00 | 0.00 | 0.00 | 100 | 1016.4 |
| 20260507083018 | 21 | 248 | 0.0 | 1.6 | 0.00 | 0.00 | 0.00 | 100 | 1016.5 |
| 20260507082518 | 21 | 248 | 0.0 | 1.6 | 0.00 | 0.00 | 0.00 | 100 | 1016.4 |
| 20260507082017 | 21 | 248 | 0.0 | 0.0 | 0.00 | 0.00 | 0.00 | 100 | 1016.4 |
| 20260507081517 | 21 | 248 | 0.0 | 0.0 | 0.00 | 0.00 | 0.00 | 100 | 1016.4 |
| 20260507081018 | 21 | 248 | 0.0 | 0.0 | 0.00 | 0.00 | 0.00 | 100 | 1016.5 |
| 20260507080518 | 21 | 248 | 0.0 | 0.0 | 0.00 | 0.00 | 0.00 | 100 | 1016.5 |
| 20260507080017 | 21 | 248 | 0.0 | 3.2 | 0.00 | 0.00 | 0.00 | 100 | 1016.4 |
| 20260507075516 | 21 | 248 | 0.0 | 0.0 | 0.00 | 0.00 | 0.00 | 100 | 1016.4 |
| 20260507075016 | 21 | 248 | 0.0 | 1.6 | 0.00 | 0.00 | 0.00 | 100 | 1016.5 |
| 20260507074526 | 21 | 248 | 0.0 | 1.6 | 0.00 | 0.00 | 0.00 | 100 | 1016.5 |
| 20260507074014 | 21 | 248 | 0.0 | 0.0 | 0.00 | 0.00 | 0.00 | 100 | 1016.6 |
| 20260507073515 | 21 | 248 | 0.0 | 1.6 | 0.00 | 0.00 | 0.00 | 100 | 1016.5 |
| 20260507073014 | 21 | 248 | 0.0 | 3.2 | 0.00 | 0.00 | 0.00 | 100 | 1016.7 |
| 20260507072513 | 21 | 248 | 0.0 | 0.0 | 0.00 | 0.00 | 0.00 | 100 | 1016.7 |
| 20260507072011 | 21 | 248 | 0.0 | 0.0 | 0.00 | 0.00 | 0.00 | 100 | 1016.7 |
| 20260507071512 | 21 | 248 | 0.0 | 0.0 | 0.00 | 0.00 | 0.00 | 100 | 1016.8 |
| 20260507071011 | 21 | 248 | 0.0 | 1.6 | 0.00 | 0.00 | 0.00 | 100 | 1016.8 |
| 20260507070511 | 21 | 248 | 0.0 | 3.2 | 0.00 | 0.00 | 0.00 | 100 | 1016.8 |
| 20260507070012 | 21 | 248 | 0.0 | 3.2 | 0.00 | 0.00 | 0.00 | 100 | 1017.0 |
| 20260507065513 | 22 | 248 | 0.0 | 3.2 | 0.00 | 0.00 | 0.00 | 100 | 1017.1 |
| 20260507065107 | 22 | 248 | 0.0 | 3.2 | 0.00 | 0.00 | 0.00 | 100 | 1017.3 |
| 20260507064506 | 22 | 248 | 0.0 | 1.6 | 0.00 | 0.00 | 0.00 | 100 | 1017.4 |
| 20260507064009 | 22 | 248 | 0.0 | 1.6 | 0.00 | 0.00 | 0.00 | 100 | 1017.4 |
| 20260507063505 | 22 | 248 | 0.0 | 3.2 | 0.00 | 0.00 | 0.00 | 100 | 1017.4 |
| 20260507063004 | 22 | 248 | 0.0 | 6.4 | 0.00 | 0.00 | 0.00 | 100 | 1017.4 |
| 20260507062502 | 22 | 248 | 0.0 | 6.4 | 0.00 | 0.00 | 0.00 | 100 | 1017.4 |
| 20260507062002 | 22 | 231 | 1.6 | 8.0 | 0.00 | 0.00 | 0.00 | 100 | 1017.4 |
| 20260507061601 | 23 | 242 | 1.6 | 6.4 | 0.00 | 0.00 | 0.00 | 100 | 1017.3 |
| 20260507061102 | 23 | 242 | 0.0 | 6.4 | 0.00 | 0.00 | 0.00 | 100 | 1017.3 |
| 20260507060558 | 23 | 224 | 0.0 | 8.0 | 0.00 | 0.00 | 0.00 | 100 | 1017.4 |
| 20260507060057 | 23 | 223 | 0.0 | 4.8 | 0.00 | 0.00 | 0.00 | 100 | 1017.5 |
| 20260507055555 | 24 | 205 | 0.0 | 4.8 | 0.00 | 0.00 | 0.00 | 100 | 1017.6 |
| 20260507055053 | 24 | 205 | 1.6 | 11.3 | 0.00 | 0.00 | 0.00 | 100 | 1017.6 |
| 20260507054556 | 24 | 161 | 1.6 | 11.3 | 0.00 | 0.00 | 0.00 | 100 | 1017.6 |
| 20260507054052 | 25 | 182 | 1.6 | 8.0 | 0.00 | 0.00 | 0.00 | 100 | 1017.7 |
| 20260507053552 | 25 | 192 | 3.2 | 12.9 | 0.00 | 0.00 | 0.00 | 100 | 1017.7 |
| 20260507053050 | 25 | 162 | 1.6 | 12.9 | 0.00 | 0.00 | 0.00 | 100 | 1017.9 |
| 20260507052553 | 25 | 174 | 1.6 | 16.1 | 0.00 | 0.00 | 0.00 | 100 | 1017.9 |
| 20260507052051 | 25 | 169 | 8.0 | 16.1 | 0.00 | 0.00 | 0.00 | 100 | 1017.8 |
| 20260507051551 | 25 | 140 | 6.4 | 16.1 | 0.00 | 0.00 | 0.00 | 100 | 1017.8 |
| 20260507051050 | 25 | 142 | 6.4 | 17.7 | 0.00 | 0.00 | 0.00 | 100 | 1017.8 |
| 20260507050551 | 25 | 159 | 6.4 | 17.7 | 0.00 | 0.00 | 0.00 | 100 | 1017.8 |
| 20260507050055 | 25 | 160 | 6.4 | 17.7 | 0.00 | 0.00 | 0.00 | 100 | 1017.8 |
| 20260507045549 | 25 | 135 | 9.7 | 17.7 | 0.00 | 0.00 | 0.00 | 100 | 1017.8 |
| 20260507045050 | 25 | 135 | 4.8 | 20.9 | 0.00 | 0.00 | 0.00 | 100 | 1017.9 |
| 20260507044551 | 25 | 138 | 11.3 | 20.9 | 0.00 | 0.00 | 0.00 | 100 | 1017.7 |
| 20260507044048 | 25 | 146 | 4.8 | 19.3 | 0.00 | 0.00 | 0.00 | 100 | 1017.8 |
| 20260507043547 | 25 | 134 | 6.4 | 12.9 | 0.00 | 0.00 | 0.00 | 100 | 1017.8 |
| 20260507043049 | 25 | 133 | 4.8 | 14.5 | 0.00 | 0.00 | 0.00 | 100 | 1017.8 |
| 20260507042547 | 25 | 101 | 4.8 | 14.5 | 0.00 | 0.00 | 0.00 | 100 | 1017.9 |
| 20260507042050 | 25 | 150 | 4.8 | 14.5 | 0.00 | 0.00 | 0.00 | 100 | 1017.9 |
| 20260507041548 | 25 | 139 | 3.2 | 16.1 | 0.00 | 0.00 | 0.00 | 100 | 1017.9 |
| 20260507041049 | 25 | 104 | 4.8 | 16.1 | 0.00 | 0.00 | 0.00 | 100 | 1017.9 |
| 20260507040547 | 25 | 161 | 6.4 | 14.5 | 0.00 | 0.00 | 0.00 | 100 | 1018.1 |
| 20260507040045 | 25 | 158 | 3.2 | 17.7 | 0.00 | 0.00 | 0.00 | 100 | 1018.0 |
| 20260507035544 | 25 | 145 | 8.0 | 14.5 | 0.00 | 0.00 | 0.00 | 100 | 1017.9 |
| 20260507035043 | 25 | 150 | 4.8 | 12.9 | 0.00 | 0.00 | 0.00 | 100 | 1017.8 |
| 20260507034557 | 25 | 134 | 4.8 | 12.9 | 0.00 | 0.00 | 0.00 | 100 | 1017.8 |
| 20260507034042 | 25 | 127 | 6.4 | 16.1 | 0.00 | 0.00 | 0.00 | 100 | 1017.8 |
| 20260507033542 | 25 | 155 | 4.8 | 16.1 | 0.00 | 0.00 | 0.00 | 100 | 1017.7 |
| 20260507033100 | 25 | 136 | 4.8 | 16.1 | 0.00 | 0.00 | 0.00 | 100 | 1017.8 |
| 20260507032544 | 25 | 117 | 6.4 | 17.7 | 0.00 | 0.00 | 0.00 | 100 | 1017.7 |
| 20260507032043 | 25 | 115 | 8.0 | 17.7 | 0.00 | 0.00 | 0.00 | 100 | 1017.7 |
| 20260507031541 | 25 | 146 | 4.8 | 16.1 | 0.00 | 0.00 | 0.00 | 100 | 1017.9 |
| 20260507031144 | 25 | 140 | 4.8 | 16.1 | 0.00 | 0.00 | 0.00 | 100 | 1018.0 |
| 20260507030545 | 25 | 126 | 8.0 | 16.1 | 0.00 | 0.00 | 0.00 | 100 | 1017.9 |
| 20260507030041 | 25 | 140 | 6.4 | 16.1 | 0.00 | 0.00 | 0.00 | 100 | 1017.9 |
| 20260507025540 | 25 | 112 | 6.4 | 16.1 | 0.00 | 0.00 | 0.00 | 100 | 1017.8 |
| 20260507025041 | 25 | 144 | 4.8 | 14.5 | 0.00 | 0.00 | 0.00 | 100 | 1017.8 |
| 20260507024551 | 25 | 118 | 4.8 | 19.3 | 0.00 | 0.00 | 0.00 | 100 | 1018.0 |
| 20260507024043 | 25 | 114 | 6.4 | 19.3 | 0.00 | 0.00 | 0.00 | 100 | 1018.0 |
| 20260507023545 | 25 | 120 | 4.8 | 14.5 | 0.00 | 0.00 | 0.00 | 100 | 1018.1 |
| 20260507023039 | 25 | 113 | 6.4 | 14.5 | 0.00 | 0.00 | 0.00 | 100 | 1017.9 |
| 20260507022539 | 25 | 96 | 6.4 | 14.5 | 0.00 | 0.00 | 0.00 | 100 | 1018.1 |
| 20260507022039 | 25 | 136 | 6.4 | 14.5 | 0.00 | 0.00 | 0.00 | 100 | 1018.2 |
| 20260507021539 | 25 | 142 | 4.8 | 14.5 | 0.00 | 0.00 | 0.00 | 100 | 1018.2 |
| 20260507021041 | 25 | 115 | 6.4 | 16.1 | 0.00 | 0.00 | 0.00 | 100 | 1018.2 |
| 20260507020538 | 25 | 139 | 6.4 | 16.1 | 0.00 | 0.00 | 0.00 | 100 | 1018.1 |
| 20260507020039 | 25 | 144 | 6.4 | 14.5 | 0.00 | 0.00 | 0.00 | 100 | 1018.1 |
| 20260507015537 | 25 | 130 | 6.4 | 16.1 | 0.00 | 0.00 | 0.00 | 100 | 1018.0 |
| 20260507015039 | 25 | 145 | 8.0 | 16.1 | 0.00 | 0.00 | 0.00 | 100 | 1018.1 |
| 20260507014538 | 25 | 135 | 4.8 | 14.5 | 0.00 | 0.00 | 0.00 | 100 | 1018.0 |
| 20260507014038 | 25 | 137 | 6.4 | 14.5 | 0.00 | 0.00 | 0.00 | 100 | 1018.0 |
| 20260507013640 | 25 | 141 | 6.4 | 14.5 | 0.00 | 0.00 | 0.00 | 100 | 1018.0 |
| 20260507013039 | 25 | 161 | 6.4 | 14.5 | 0.00 | 0.00 | 0.00 | 100 | 1018.0 |
| 20260507012537 | 25 | 93 | 4.8 | 16.1 | 0.00 | 0.00 | 0.00 | 100 | 1018.1 |
| 20260507012037 | 25 | 121 | 4.8 | 16.1 | 0.00 | 0.00 | 0.00 | 100 | 1018.0 |
| 20260507011539 | 25 | 110 | 3.2 | 12.9 | 0.00 | 0.00 | 0.00 | 100 | 1017.9 |
| 20260507011035 | 25 | 153 | 8.0 | 12.9 | 0.00 | 0.00 | 0.00 | 100 | 1017.9 |
| 20260507010535 | 25 | 142 | 4.8 | 12.9 | 0.00 | 0.00 | 0.00 | 100 | 1017.9 |
| 20260507010039 | 25 | 137 | 4.8 | 14.5 | 0.00 | 0.00 | 0.00 | 100 | 1017.9 |
| 20260507005536 | 25 | 142 | 6.4 | 14.5 | 0.00 | 0.00 | 0.00 | 100 | 1017.9 |
| 20260507005035 | 25 | 134 | 6.4 | 12.9 | 0.00 | 0.00 | 0.00 | 100 | 1017.8 |
| 20260507004535 | 25 | 130 | 6.4 | 14.5 | 0.00 | 0.00 | 0.00 | 100 | 1017.8 |
| 20260507004035 | 26 | 148 | 6.4 | 14.5 | 0.00 | 0.00 | 0.00 | 100 | 1017.8 |
| 20260507003535 | 26 | 120 | 6.4 | 12.9 | 0.00 | 0.00 | 0.00 | 100 | 1017.7 |
| 20260507003035 | 26 | 159 | 4.8 | 14.5 | 0.00 | 0.00 | 0.00 | 100 | 1017.7 |
| 20260507002534 | 26 | 130 | 4.8 | 14.5 | 0.00 | 0.00 | 0.00 | 100 | 1017.6 |
| 20260507002034 | 26 | 136 | 6.4 | 14.5 | 0.00 | 0.00 | 0.00 | 100 | 1017.6 |
| 20260507001549 | 26 | 167 | 6.4 | 14.5 | 0.00 | 0.00 | 0.00 | 100 | 1017.7 |
| 20260507001038 | 26 | 140 | 6.4 | 17.7 | 0.00 | 0.00 | 0.00 | 100 | 1017.7 |
| 20260507000533 | 26 | 159 | 8.0 | 17.7 | 0.00 | 0.00 | 0.00 | 100 | 1017.6 |
| 20260507000033 | 26 | 124 | 4.8 | 14.5 | 0.00 | 0.00 | 0.00 | 100 | 1017.5 |
| 20260506235534 | 26 | 135 | 6.4 | 16.1 | 0.00 | 0.00 | 0.00 | 100 | 1017.6 |
| 20260506235036 | 26 | 150 | 8.0 | 20.9 | 0.00 | 0.00 | 0.00 | 100 | 1017.6 |
| 20260506234546 | 26 | 141 | 8.0 | 16.1 | 0.00 | 0.00 | 0.00 | 100 | 1017.5 |
| 20260506234033 | 26 | 128 | 6.4 | 16.1 | 0.00 | 0.00 | 0.00 | 100 | 1017.7 |
| 20260506233533 | 26 | 109 | 6.4 | 16.1 | 0.00 | 0.00 | 0.00 | 100 | 1017.6 |
| 20260506233032 | 26 | 156 | 8.0 | 16.1 | 0.00 | 0.00 | 0.00 | 100 | 1017.7 |
| 20260506232533 | 26 | 139 | 6.4 | 16.1 | 0.00 | 0.00 | 0.00 | 100 | 1017.6 |
| 20260506232048 | 26 | 159 | 8.0 | 16.1 | 0.00 | 0.00 | 0.00 | 100 | 1017.7 |
| 20260506231534 | 26 | 134 | 9.7 | 17.7 | 0.00 | 0.00 | 0.00 | 100 | 1017.7 |
| 20260506231029 | 27 | 116 | 6.4 | 17.7 | 0.00 | 0.00 | 0.00 | 100 | 1017.8 |
| 20260506230532 | 27 | 111 | 4.8 | 16.1 | 0.00 | 0.00 | 0.00 | 100 | 1017.8 |
| 20260506230028 | 27 | 134 | 6.4 | 19.3 | 0.00 | 0.00 | 0.00 | 100 | 1017.7 |
| 20260506225531 | 27 | 150 | 8.0 | 17.7 | 0.00 | 0.00 | 0.00 | 100 | 1017.7 |
| 20260506225028 | 27 | 116 | 4.8 | 16.1 | 0.00 | 0.00 | 0.00 | 100 | 1017.7 |
| 20260506224530 | 27 | 138 | 4.8 | 19.3 | 0.00 | 0.00 | 0.00 | 100 | 1017.6 |
| 20260506224028 | 27 | 159 | 8.0 | 20.9 | 0.00 | 0.00 | 0.00 | 100 | 1017.5 |
| 20260506223527 | 27 | 117 | 9.7 | 20.9 | 0.00 | 0.00 | 0.00 | 100 | 1017.6 |
| 20260506223029 | 27 | 150 | 9.7 | 19.3 | 0.00 | 0.00 | 0.00 | 100 | 1017.5 |
| 20260506222527 | 27 | 131 | 4.8 | 20.9 | 0.00 | 0.00 | 0.00 | 100 | 1017.6 |
| 20260506222026 | 27 | 132 | 11.3 | 20.9 | 0.00 | 0.00 | 0.00 | 100 | 1017.6 |
| 20260506221526 | 27 | 119 | 8.0 | 22.5 | 0.00 | 0.00 | 0.00 | 100 | 1017.7 |
| 20260506221026 | 27 | 178 | 11.3 | 22.5 | 0.00 | 0.00 | 0.00 | 100 | 1017.5 |
| 20260506220526 | 27 | 128 | 6.4 | 24.1 | 0.00 | 0.00 | 0.00 | 100 | 1017.6 |
| 20260506220035 | 27 | 154 | 11.3 | 24.1 | 0.00 | 0.00 | 0.00 | 100 | 1017.6 |
| 20260506215526 | 27 | 160 | 6.4 | 17.7 | 0.00 | 0.00 | 0.00 | 100 | 1017.7 |
| 20260506215026 | 27 | 148 | 6.4 | 17.7 | 0.00 | 0.00 | 0.00 | 100 | 1017.7 |
| 20260506214527 | 27 | 136 | 6.4 | 14.5 | 0.00 | 0.00 | 0.00 | 100 | 1017.6 |
| 20260506214028 | 27 | 155 | 6.4 | 14.5 | 0.00 | 0.00 | 0.00 | 100 | 1017.7 |
| 20260506213525 | 27 | 99 | 6.4 | 17.7 | 0.00 | 0.00 | 0.00 | 100 | 1017.7 |
| 20260506213024 | 27 | 113 | 8.0 | 19.3 | 0.00 | 0.00 | 0.00 | 100 | 1017.6 |
| 20260506212527 | 27 | 103 | 9.7 | 19.3 | 0.00 | 0.00 | 0.00 | 100 | 1017.7 |
| 20260506212024 | 27 | 109 | 8.0 | 19.3 | 0.00 | 0.00 | 0.00 | 100 | 1017.7 |
| 20260506211524 | 27 | 144 | 8.0 | 17.7 | 0.00 | 0.00 | 0.00 | 100 | 1017.7 |
| 20260506211024 | 27 | 116 | 6.4 | 17.7 | 0.00 | 0.00 | 0.00 | 100 | 1017.7 |
| 20260506210524 | 28 | 167 | 9.7 | 19.3 | 0.00 | 0.00 | 0.00 | 100 | 1017.7 |
| 20260506210023 | 27 | 153 | 8.0 | 19.3 | 0.00 | 0.00 | 0.00 | 100 | 1017.8 |
| 20260506205523 | 27 | 138 | 6.4 | 17.7 | 0.00 | 0.00 | 0.00 | 100 | 1017.8 |
| 20260506205023 | 28 | 128 | 6.4 | 14.5 | 0.00 | 0.00 | 0.00 | 100 | 1017.8 |
| 20260506204523 | 28 | 147 | 6.4 | 19.3 | 0.00 | 0.00 | 0.00 | 100 | 1017.7 |
| 20260506204023 | 27 | 134 | 8.0 | 19.3 | 0.00 | 0.00 | 0.00 | 100 | 1017.7 |
| 20260506203524 | 27 | 158 | 8.0 | 17.7 | 0.00 | 0.00 | 0.00 | 100 | 1017.7 |
| 20260506203025 | 28 | 154 | 4.8 | 20.9 | 0.00 | 0.00 | 0.00 | 100 | 1017.7 |
| 20260506202523 | 27 | 124 | 11.3 | 20.9 | 0.00 | 0.00 | 0.00 | 100 | 1017.8 |
| 20260506202025 | 28 | 107 | 4.8 | 14.5 | 0.00 | 0.00 | 0.00 | 100 | 1017.7 |
| 20260506201522 | 28 | 150 | 6.4 | 19.3 | 0.00 | 0.00 | 0.00 | 100 | 1017.8 |
| 20260506201022 | 27 | 102 | 8.0 | 22.5 | 0.00 | 0.00 | 0.00 | 100 | 1017.9 |
| 20260506200521 | 28 | 111 | 8.0 | 22.5 | 0.00 | 0.00 | 0.00 | 100 | 1017.9 |
| 20260506200021 | 28 | 126 | 6.4 | 25.7 | 0.00 | 0.00 | 0.00 | 100 | 1017.9 |
| 20260506195522 | 27 | 113 | 12.9 | 27.4 | 0.00 | 0.00 | 0.00 | 100 | 1017.9 |
| 20260506195021 | 27 | 131 | 12.9 | 20.9 | 0.00 | 0.00 | 0.00 | 100 | 1017.9 |
| 20260506194531 | 28 | 146 | 8.0 | 20.9 | 0.00 | 0.00 | 0.00 | 100 | 1017.9 |
| 20260506194023 | 28 | 150 | 9.7 | 20.9 | 0.00 | 0.00 | 0.00 | 100 | 1018.0 |
| 20260506193522 | 28 | 145 | 12.9 | 20.9 | 0.00 | 0.00 | 0.00 | 100 | 1017.9 |
| 20260506193020 | 28 | 154 | 6.4 | 16.1 | 0.00 | 0.00 | 0.00 | 100 | 1017.9 |
| 20260506192520 | 28 | 115 | 8.0 | 17.7 | 0.00 | 0.00 | 0.00 | 100 | 1017.9 |
| 20260506192020 | 28 | 162 | 8.0 | 19.3 | 0.00 | 0.00 | 0.00 | 100 | 1018.1 |
| 20260506191520 | 28 | 112 | 8.0 | 17.7 | 0.00 | 0.00 | 0.00 | 100 | 1018.1 |
| 20260506191020 | 28 | 144 | 8.0 | 17.7 | 0.00 | 0.00 | 0.00 | 100 | 1018.2 |
| 20260506190542 | 28 | 104 | 6.4 | 19.3 | 0.00 | 0.00 | 0.00 | 100 | 1018.3 |
| 20260506190020 | 28 | 142 | 6.4 | 19.3 | 0.00 | 0.00 | 0.00 | 100 | 1018.3 |
| 20260506185519 | 28 | 169 | 8.0 | 17.7 | 0.00 | 0.00 | 0.00 | 100 | 1018.3 |
| 20260506185019 | 28 | 154 | 6.4 | 19.3 | 0.00 | 0.00 | 0.00 | 100 | 1018.4 |
| 20260506184527 | 28 | 96 | 4.8 | 19.3 | 0.00 | 0.00 | 0.00 | 100 | 1018.4 |
| 20260506184019 | 28 | 157 | 11.3 | 19.3 | 0.00 | 0.00 | 0.00 | 100 | 1018.5 |
| 20260506183519 | 28 | 191 | 8.0 | 17.7 | 0.00 | 0.00 | 0.00 | 100 | 1018.6 |
| 20260506183019 | 28 | 149 | 8.0 | 17.7 | 0.00 | 0.00 | 0.00 | 100 | 1018.6 |
| 20260506182518 | 28 | 106 | 8.0 | 17.7 | 0.00 | 0.00 | 0.00 | 100 | 1018.7 |
| 20260506182021 | 28 | 106 | 6.4 | 16.1 | 0.00 | 0.00 | 0.00 | 100 | 1018.6 |
| 20260506181517 | 28 | 121 | 6.4 | 16.1 | 0.00 | 0.00 | 0.00 | 100 | 1018.6 |
| 20260506181017 | 28 | 166 | 9.7 | 17.7 | 0.00 | 0.00 | 0.00 | 100 | 1018.7 |
| 20260506180517 | 28 | 168 | 11.3 | 17.7 | 0.00 | 0.00 | 0.00 | 100 | 1018.8 |
| 20260506180017 | 28 | 133 | 4.8 | 12.9 | 0.00 | 0.00 | 0.00 | 100 | 1018.7 |
| 20260506175518 | 28 | 84 | 3.2 | 16.1 | 0.00 | 0.00 | 0.00 | 100 | 1018.8 |
| 20260506175019 | 28 | 162 | 6.4 | 16.1 | 0.00 | 0.00 | 0.00 | 100 | 1018.7 |
| 20260506174515 | 28 | 109 | 3.2 | 16.1 | 0.00 | 0.00 | 0.00 | 100 | 1018.8 |
| 20260506174016 | 28 | 117 | 8.0 | 16.1 | 0.00 | 0.00 | 0.00 | 100 | 1018.9 |
| 20260506173516 | 28 | 171 | 6.4 | 14.5 | 0.00 | 0.00 | 0.00 | 100 | 1018.8 |
| 20260506173020 | 27 | 125 | 6.4 | 17.7 | 0.00 | 0.00 | 0.00 | 100 | 1018.8 |
| 20260506172515 | 27 | 132 | 11.3 | 17.7 | 0.00 | 0.00 | 0.00 | 100 | 1018.8 |
| 20260506172014 | 27 | 163 | 9.7 | 17.7 | 0.00 | 0.00 | 0.00 | 100 | 1018.8 |
| 20260506171518 | 27 | 74 | 8.0 | 16.1 | 0.00 | 0.00 | 0.00 | 100 | 1018.9 |
| 20260506171013 | 27 | 162 | 8.0 | 16.1 | 0.00 | 0.00 | 0.00 | 100 | 1018.9 |
| 20260506170514 | 27 | 146 | 6.4 | 17.7 | 0.00 | 0.00 | 0.00 | 100 | 1018.9 |
| 20260506170016 | 27 | 159 | 8.0 | 17.7 | 0.00 | 0.00 | 0.00 | 100 | 1019.0 |
| 20260506165513 | 28 | 126 | 8.0 | 16.1 | 0.00 | 0.00 | 0.00 | 100 | 1019.0 |
| 20260506165013 | 27 | 192 | 6.4 | 17.7 | 0.00 | 0.00 | 0.00 | 100 | 1018.9 |
| 20260506164515 | 27 | 149 | 9.7 | 16.1 | 0.00 | 0.00 | 0.00 | 100 | 1019.0 |
| 20260506164012 | 27 | 150 | 8.0 | 14.5 | 0.00 | 0.00 | 0.00 | 100 | 1019.0 |
| 20260506163512 | 27 | 110 | 6.4 | 17.7 | 0.00 | 0.00 | 0.00 | 100 | 1019.0 |
| 20260506163012 | 27 | 117 | 9.7 | 17.7 | 0.00 | 0.00 | 0.00 | 100 | 1019.0 |
| 20260506162511 | 27 | 132 | 6.4 | 14.5 | 0.00 | 0.00 | 0.00 | 100 | 1019.1 |
| 20260506162012 | 27 | 86 | 8.0 | 20.9 | 0.00 | 0.00 | 0.00 | 100 | 1019.1 |
| 20260506161512 | 27 | 155 | 4.8 | 20.9 | 0.00 | 0.00 | 0.00 | 100 | 1019.1 |
| 20260506161010 | 27 | 119 | 3.2 | 17.7 | 0.00 | 0.00 | 0.00 | 100 | 1019.2 |
| 20260506160516 | 27 | 169 | 9.7 | 17.7 | 0.00 | 0.00 | 0.00 | 100 | 1019.2 |
| 20260506160013 | 27 | 118 | 4.8 | 19.3 | 0.00 | 0.00 | 0.00 | 100 | 1019.3 |
| 20260506155509 | 27 | 112 | 6.4 | 17.7 | 0.00 | 0.00 | 0.00 | 100 | 1019.4 |
| 20260506155009 | 27 | 115 | 6.4 | 17.7 | 0.00 | 0.00 | 0.00 | 100 | 1019.4 |
| 20260506154515 | 27 | 124 | 6.4 | 17.7 | 0.00 | 0.00 | 0.00 | 100 | 1019.3 |
| 20260506154008 | 26 | 134 | 8.0 | 17.7 | 0.00 | 0.00 | 0.00 | 100 | 1019.4 |
| 20260506153508 | 26 | 138 | 11.3 | 19.3 | 0.00 | 0.00 | 0.00 | 100 | 1019.3 |
| 20260506153007 | 26 | 159 | 8.0 | 19.3 | 0.00 | 0.00 | 0.00 | 100 | 1019.3 |
| 20260506152509 | 26 | 156 | 6.4 | 17.7 | 0.00 | 0.00 | 0.00 | 100 | 1019.3 |
| 20260506152009 | 26 | 150 | 11.3 | 17.7 | 0.00 | 0.00 | 0.00 | 100 | 1019.2 |
| 20260506151507 | 26 | 158 | 4.8 | 17.7 | 0.00 | 0.00 | 0.00 | 100 | 1019.3 |
| 20260506151006 | 26 | 117 | 8.0 | 17.7 | 0.00 | 0.00 | 0.00 | 100 | 1019.2 |
| 20260506150506 | 26 | 147 | 6.4 | 17.7 | 0.00 | 0.00 | 0.00 | 100 | 1019.2 |
| 20260506150006 | 26 | 132 | 4.8 | 17.7 | 0.00 | 0.00 | 0.00 | 100 | 1019.2 |
| 20260506145505 | 26 | 160 | 8.0 | 17.7 | 0.00 | 0.00 | 0.00 | 100 | 1019.2 |
| 20260506145005 | 26 | 120 | 9.7 | 17.7 | 0.00 | 0.00 | 0.00 | 100 | 1019.1 |
| 20260506144504 | 26 | 146 | 6.4 | 16.1 | 0.00 | 0.00 | 0.00 | 100 | 1019.1 |
| 20260506144008 | 26 | 139 | 8.0 | 16.1 | 0.00 | 0.00 | 0.00 | 100 | 1019.0 |
| 20260506143503 | 26 | 183 | 4.8 | 12.9 | 0.00 | 0.00 | 0.00 | 100 | 1019.0 |
| 20260506143002 | 26 | 139 | 3.2 | 12.9 | 0.00 | 0.00 | 0.00 | 100 | 1018.9 |
| 20260506142504 | 26 | 117 | 3.2 | 14.5 | 0.00 | 0.00 | 0.00 | 100 | 1018.9 |
| 20260506142004 | 26 | 166 | 9.7 | 16.1 | 0.00 | 0.00 | 0.00 | 100 | 1019.0 |
| 20260506141600 | 25 | 192 | 8.0 | 16.1 | 0.00 | 0.00 | 0.00 | 100 | 1019.0 |
| 20260506141102 | 26 | 171 | 8.0 | 16.1 | 0.00 | 0.00 | 0.00 | 100 | 1018.9 |
| 20260506140600 | 26 | 120 | 4.8 | 14.5 | 0.00 | 0.00 | 0.00 | 100 | 1018.9 |
| 20260506140100 | 25 | 144 | 6.4 | 14.5 | 0.00 | 0.00 | 0.00 | 100 | 1019.0 |
| 20260506135559 | 25 | 163 | 8.0 | 12.9 | 0.00 | 0.00 | 0.00 | 100 | 1018.9 |
| 20260506135059 | 26 | 110 | 3.2 | 11.3 | 0.00 | 0.00 | 0.00 | 100 | 1018.9 |
| 20260506134600 | 26 | 144 | 4.8 | 11.3 | 0.00 | 0.00 | 0.00 | 100 | 1018.9 |
| 20260506134057 | 25 | 125 | 3.2 | 11.3 | 0.00 | 0.00 | 0.00 | 100 | 1018.8 |
| 20260506133557 | 25 | 159 | 3.2 | 12.9 | 0.00 | 0.00 | 0.00 | 100 | 1018.6 |
| 20260506133111 | 25 | 136 | 6.4 | 16.1 | 0.00 | 0.00 | 0.00 | 100 | 1018.6 |
| 20260506132556 | 25 | 123 | 4.8 | 12.9 | 0.00 | 0.00 | 0.00 | 100 | 1018.7 |
| 20260506132056 | 25 | 126 | 4.8 | 14.5 | 0.00 | 0.00 | 0.00 | 100 | 1018.7 |
| 20260506131602 | 25 | 142 | 8.0 | 14.5 | 0.00 | 0.00 | 0.00 | 100 | 1018.6 |
| 20260506131056 | 25 | 142 | 4.8 | 11.3 | 0.00 | 0.00 | 0.00 | 100 | 1018.6 |
| 20260506130554 | 25 | 164 | 6.4 | 12.9 | 0.00 | 0.00 | 0.00 | 100 | 1018.6 |
| 20260506130056 | 25 | 153 | 6.4 | 14.5 | 0.00 | 0.00 | 0.00 | 100 | 1018.6 |
| 20260506125552 | 25 | 153 | 8.0 | 14.5 | 0.00 | 0.00 | 0.00 | 100 | 1018.6 |
| 20260506125052 | 25 | 108 | 3.2 | 14.5 | 0.00 | 0.00 | 0.00 | 100 | 1018.5 |
| 20260506124557 | 25 | 157 | 3.2 | 14.5 | 0.00 | 0.00 | 0.00 | 100 | 1018.5 |
| 20260506124053 | 25 | 153 | 6.4 | 16.1 | 0.00 | 0.00 | 0.00 | 100 | 1018.5 |
| 20260506123550 | 25 | 158 | 8.0 | 16.1 | 0.00 | 0.00 | 0.00 | 100 | 1018.5 |
| 20260506123051 | 25 | 159 | 4.8 | 12.9 | 0.00 | 0.00 | 0.00 | 100 | 1018.5 |
| 20260506122549 | 25 | 162 | 1.6 | 11.3 | 0.00 | 0.00 | 0.00 | 100 | 1018.5 |
| 20260506122047 | 24 | 155 | 3.2 | 12.9 | 0.00 | 0.00 | 0.00 | 100 | 1018.4 |
| 20260506121547 | 24 | 122 | 1.6 | 12.9 | 0.00 | 0.00 | 0.00 | 100 | 1018.2 |
| 20260506121047 | 24 | 159 | 4.8 | 11.3 | 0.00 | 0.00 | 0.00 | 100 | 1018.2 |
| 20260506120549 | 24 | 129 | 1.6 | 6.4 | 0.00 | 0.00 | 0.00 | 100 | 1018.3 |
| 20260506120047 | 23 | 122 | 0.0 | 6.4 | 0.00 | 0.00 | 0.00 | 100 | 1018.3 |
| 20260506115546 | 23 | 121 | 0.0 | 0.0 | 0.00 | 0.00 | 0.00 | 100 | 1018.3 |
| 20260506115046 | 23 | 121 | 0.0 | 0.0 | 0.00 | 0.00 | 0.00 | 100 | 1018.3 |
| 20260506114546 | 23 | 121 | 0.0 | 0.0 | 0.00 | 0.00 | 0.00 | 100 | 1018.3 |
| 20260506114047 | 22 | 121 | 0.0 | 0.0 | 0.00 | 0.00 | 0.00 | 100 | 1018.3 |
| 20260506113545 | 22 | 121 | 0.0 | 0.0 | 0.00 | 0.00 | 0.00 | 100 | 1018.3 |
| 20260506113045 | 22 | 121 | 0.0 | 0.0 | 0.00 | 0.00 | 0.00 | 100 | 1018.4 |
| 20260506112548 | 22 | 121 | 0.0 | 0.0 | 0.00 | 0.00 | 0.00 | 100 | 1018.4 |
| 20260506112044 | 22 | 121 | 0.0 | 0.0 | 0.00 | 0.00 | 0.00 | 100 | 1018.3 |
| 20260506111544 | 22 | 121 | 0.0 | 0.0 | 0.00 | 0.00 | 0.00 | 100 | 1018.2 |
| 20260506111044 | 22 | 121 | 0.0 | 0.0 | 0.00 | 0.00 | 0.00 | 100 | 1018.1 |
| 20260506110544 | 22 | 121 | 0.0 | 0.0 | 0.00 | 0.00 | 0.00 | 100 | 1018.1 |
| 20260506110044 | 22 | 121 | 0.0 | 0.0 | 0.00 | 0.00 | 0.00 | 100 | 1018.1 |
| 20260506105546 | 22 | 121 | 0.0 | 0.0 | 0.00 | 0.00 | 0.00 | 100 | 1018.0 |
| 20260506105046 | 22 | 121 | 0.0 | 0.0 | 0.00 | 0.00 | 0.00 | 100 | 1017.8 |